TimeEST,TemperatureF,Dew PointF,Humidity,Sea Level PressureIn,VisibilityMPH,Wind Direction,Wind SpeedMPH,Gust SpeedMPH,PrecipitationIn,Events,Conditions,WindDirDegrees,DateUTC
12:53 AM,78.1,71.1,79,30.08,10.0,SE,13.8,-,N/A,,Mostly Cloudy,140,2014-02-05 05:53:00
1:18 AM,77.0,71.6,83,30.07,10.0,SE,11.5,-,N/A,,Scattered Clouds,140,2014-02-05 06:18:00
1:30 AM,78.8,71.6,78,30.07,10.0,SE,9.2,-,N/A,,Mostly Cloudy,140,2014-02-05 06:30:00
1:53 AM,78.1,72.0,81,30.07,10.0,SE,10.4,-,N/A,,Mostly Cloudy,140,2014-02-05 06:53:00
2:43 AM,77.0,71.6,83,30.06,9.0,SSE,11.5,-,N/A,,Scattered Clouds,150,2014-02-05 07:43:00
2:53 AM,77.0,72.0,84,30.06,9.0,SSE,8.1,-,N/A,,Scattered Clouds,150,2014-02-05 07:53:00
3:04 AM,77.0,71.6,83,30.06,9.0,SSE,11.5,-,N/A,,Mostly Cloudy,160,2014-02-05 08:04:00
3:32 AM,77.0,71.6,83,30.06,9.0,SSE,8.1,-,N/A,,Partly Cloudy,160,2014-02-05 08:32:00
3:53 AM,77.0,71.1,82,30.06,9.0,SSE,9.2,-,N/A,,Partly Cloudy,160,2014-02-05 08:53:00
4:53 AM,77.0,70.0,79,30.05,10.0,SSE,11.5,-,N/A,,Clear,160,2014-02-05 09:53:00
5:53 AM,78.1,70.0,76,30.06,10.0,SSE,9.2,-,N/A,,Scattered Clouds,150,2014-02-05 10:53:00
6:53 AM,77.0,71.1,82,30.08,10.0,SSE,9.2,-,N/A,,Partly Cloudy,160,2014-02-05 11:53:00
7:53 AM,78.1,71.1,79,30.10,10.0,South,8.1,-,N/A,,Mostly Cloudy,170,2014-02-05 12:53:00
8:53 AM,80.1,72.0,76,30.11,10.0,SSE,11.5,-,N/A,,Scattered Clouds,160,2014-02-05 13:53:00
9:53 AM,81.0,72.0,74,30.11,10.0,SSE,12.7,-,N/A,,Scattered Clouds,160,2014-02-05 14:53:00
10:53 AM,82.9,71.1,67,30.11,10.0,South,15.0,-,N/A,,Mostly Cloudy,180,2014-02-05 15:53:00
11:03 AM,82.4,69.8,66,30.10,10.0,SSE,19.6,23.0,N/A,,Scattered Clouds,150,2014-02-05 16:03:00
11:53 AM,82.9,69.1,63,30.09,10.0,SSE,16.1,21.9,N/A,,Scattered Clouds,160,2014-02-05 16:53:00
12:53 PM,82.9,71.1,67,30.05,10.0,SSE,17.3,23.0,N/A,,Mostly Cloudy,150,2014-02-05 17:53:00
1:53 PM,84.0,71.1,65,30.03,10.0,SSE,13.8,24.2,N/A,,Scattered Clouds,150,2014-02-05 18:53:00
2:53 PM,82.9,71.1,67,30.02,10.0,SSE,18.4,25.3,N/A,,Scattered Clouds,150,2014-02-05 19:53:00
3:53 PM,81.0,71.1,72,30.02,10.0,SSE,16.1,20.7,N/A,,Scattered Clouds,150,2014-02-05 20:53:00
4:53 PM,75.9,64.9,69,30.05,9.0,West,10.4,-,0.00,Rain,Light Rain,260,2014-02-05 21:53:00
5:11 PM,73.4,66.2,78,30.06,1.8,WSW,5.8,-,0.11,Rain,Heavy Rain,240,2014-02-05 22:11:00
5:15 PM,73.4,66.2,78,30.06,0.8,SW,3.5,-,0.22,Rain,Heavy Rain,220,2014-02-05 22:15:00
5:23 PM,71.6,66.2,83,30.05,0.5,NW,6.9,-,0.39,Rain,Heavy Rain,310,2014-02-05 22:23:00
5:26 PM,71.6,66.2,83,30.06,0.8,WNW,5.8,-,0.42,Rain,Heavy Rain,290,2014-02-05 22:26:00
5:35 PM,71.6,68.0,88,30.06,2.0,WNW,5.8,-,0.45,Rain,Rain,300,2014-02-05 22:35:00
5:44 PM,71.6,68.0,88,30.07,7.0,West,8.1,-,0.45,Rain,Light Rain,270,2014-02-05 22:44:00
5:53 PM,72.0,68.0,87,30.08,9.0,WSW,9.2,-,0.45,Rain,Light Rain,240,2014-02-05 22:53:00
6:53 PM,72.0,69.1,91,30.05,10.0,SW,4.6,-,0.02,,Mostly Cloudy,220,2014-02-05 23:53:00
7:53 PM,72.0,69.1,91,30.05,10.0,Calm,Calm,-,0.01,,Clear,0,2014-02-06 00:53:00
8:53 PM,72.0,69.1,91,30.07,10.0,South,4.6,-,N/A,,Clear,180,2014-02-06 01:53:00
9:53 PM,73.0,70.0,90,30.08,10.0,Calm,Calm,-,N/A,,Clear,0,2014-02-06 02:53:00
10:53 PM,73.0,70.0,90,30.08,10.0,Calm,Calm,-,N/A,,Clear,0,2014-02-06 03:53:00
11:35 PM,71.6,69.8,94,30.08,10.0,Calm,Calm,-,N/A,,Mostly Cloudy,0,2014-02-06 04:35:00
11:53 PM,73.0,71.1,93,30.07,10.0,Calm,Calm,-,N/A,,Overcast,0,2014-02-06 04:53:00